Home   Weather   Marengo   Past weeks
Flag for USA

Past Weather in Marengo, Indiana, USA — Yesterday and Last 2 Weeks

Now
43 °F

Clear.


Feels Like: 43 °F
Forecast: 72 / 40 °F
Wind: No wind

Location: Bowling Green-Warren County Regional Airport

Current Time: Oct 19, 2019 at 3:41:02 am

Latest Report: Oct 19, 2019 at 2:53 am


Visibility: 10 mi

Pressure: 29.93 "Hg

Humidity: 89%

Dew Point: 40 °F

Location of MarengoLocation

Past Weather in Marengo — Graph

°F

Marengo Temperature Yesterday

Maximum temperature yesterday: 67 °F (at 2:53 pm)
Minimum temperature yesterday: 38 °F (at 6:53 am)
Average temperature yesterday: 51 °F

High & Low Weather Summary for the Past Weeks

 TemperatureHumidityPressure
High90 °F (Oct 5, 4:53 pm)93% (Oct 9, 8:53 am)30.24 "Hg (Oct 9, 8:53 am)
Low36 °F (Oct 13, 6:53 am)24% (Oct 13, 5:53 pm)29.80 "Hg (Oct 16, 3:53 am)
Average61 °F69%30.07 "Hg
* Reported Oct 4 1:53 am — Oct 19 1:53 am, Marengo. Weather by CustomWeather, © 2019

Note: Actual official high and low records may vary slightly from our data, if they occured in-between our weather recording intervals... More about our weather records

Advertising

Marengo Weather History for the Previous 24 Hours

Scroll right to see more
 ConditionsComfort  
Time TempWeatherWind HumidityBarometerVisibility
1:53 am
Sat, Oct 19
45 °FClear.No wind86%29.93 "Hg10 mi
12:53 am45 °FClear.No wind82%29.93 "Hg10 mi
11:53 pm
Fri, Oct 18
47 °FClear.No wind80%29.94 "Hg10 mi
10:53 pm49 °FClear.No wind77%29.95 "Hg10 mi
9:53 pm50 °FClear.No wind77%29.95 "Hg10 mi
8:53 pm53 °FClear.No wind69%29.96 "Hg10 mi
7:53 pm55 °FClear.No wind62%29.96 "Hg10 mi
6:53 pm62 °FClear.3 mph44%29.97 "Hg10 mi
5:53 pm66 °FSunny.8 mph37%29.97 "Hg10 mi
4:53 pm67 °FSunny.9 mph36%29.98 "Hg10 mi
3:53 pm67 °FSunny.8 mph36%30.00 "Hg10 mi
2:53 pm67 °FSunny.12 mph37%30.01 "Hg10 mi
1:53 pm64 °FSunny.6 mph38%30.05 "Hg10 mi
12:53 pm62 °FSunny.7 mph48%30.09 "Hg10 mi
11:53 am59 °FSunny.3 mph54%30.10 "Hg10 mi
10:53 am53 °FSunny.No wind66%30.11 "Hg10 mi
9:53 am48 °FSunny.No wind77%30.11 "Hg10 mi
8:53 am41 °FSunny.No wind86%30.09 "Hg10 mi
7:53 am38 °FSunny.No wind90%30.07 "Hg10 mi
6:53 am38 °FClear.No wind93%30.06 "Hg8 mi
5:53 am40 °FClear.No wind86%30.05 "Hg10 mi
5:04 am39 °FClear.5 mph86%30.03 "Hg10 mi
3:53 am40 °FClear.No wind89%30.04 "Hg9 mi
Weather by CustomWeather, © 2019

See weather overview